Weather in Langepas

Russia / Khanty-Mansi Autonomous Okrug — Yugra     61°15′13″N   75°10′50″E
temp.,
°C
wind,
m/s
gust,
m/s
humid.,
%
clouds,
%
prec.,
mm/h
press.,
hPa
HPBL,
m
28 february, sun
sun2823:00−25wsw239787 0.0 102922
02:00−27wsw239958 0.0 102819
05:00−28ssw229937 0.0 102919
08:00−28s229955 0.0 102819
11:00−24se239629 0.0 1028177
14:00−21se349459 0.0 1027238
17:00−23ese349741 0.0 102636
20:00−25ese459922 0.0 102671
1 march, mon
mon123:00−26ese3510037 0.0 102558
02:00−28ese349958 0.0 102552
05:00−29ese349941 0.0 102455
08:00−29e35980 0.0 102397
11:00−24ese46953 0.0 1022246
14:00−21ese46910 0.0 1021282
17:00−23ese34950 0.0 102141
20:00−25ese34970 0.0 102047
2 march, tue
tue223:00−27se45991 0.0 102067
02:00−28se349915 0.0 101944
05:00−28se35977 0.0 101952
08:00−28se45940 0.0 1018102
11:00−23se47930 0.0 1017245
14:00−20se58935 0.0 1015306
17:00−21ese589827 0.0 1015137
20:00−22se589973 0.0 1015151
3 march, wed
wed323:00−23se489977 0.0 1014128
02:00−23se469991 0.0 1013115
05:00−23se589996 0.1 1014159
08:00−23se599999 0.0 1012183
11:00−18se61094100 0.1 1012364
14:00−14se61092100 0.0 1011497
17:00−14se61293100 0.1 1010417
20:00−14se71393100 0.1 1008510
4 march, thu
thu423:00−13sse61293100 0.1 1007578
02:00−13sse61194100 0.3 1005598
05:00−13sse61193100 0.9 1005572
08:00−13sse61093100 0.1 1004513
11:00−12sse6993100 0.6 1004529
14:00−10sse6891100 0.3 1003524
17:00−11se5994100 0.4 1003313
20:00−11se499597 0.2 1001248